Flag for U.S.A. Weather past 2 weeks in Jersey City, New Jersey, U.S.A.

Now
52 °F

Partly sunny.


Feels Like: 46 °F
Forecast: 42 / 60 °F
Wind: 21 mph from Northwest

Location: Newark International Airport

Current Time: Dec 25, 2014 at 2:16:09 PM

Latest Report: Dec 25, 2014 at 12:51 PM


Visibility: 10 mi

Pressure: 29.80 "Hg

Humidity: 43%

Dew point: 30 °F

Location of Jersey CityLocation

Historic Weather in Jersey City — Graph

°F

Jersey City temperature yesterday

Maximum temperature yesterday: 54 °F (at 9:51 PM)
Minimum temperature yesterday: 45 °F (at 2:51 AM)
Average temperature yesterday: 48 °F

Past Weeks' High & Low Weather Summary

 TemperatureHumidityPressure
High64 °F (Dec 25, 2:51 AM)100% (Dec 16, 7:57 PM)30.34 "Hg (Dec 16, 7:57 PM)
Low31 °F (Dec 11, 1:51 AM)41% (Dec 25, 11:51 AM)29.50 "Hg (Dec 25, 3:51 AM)
Average40 °F73%29.99 "Hg
* Reported Dec 10 12:51 PM — Dec 25 12:51 PM, Jersey City, Weather by CustomWeather, © 2014

Note: Actual official high and low records may vary slightly from our data, if they occured in-between our weather recording intervals... More about our weather records

Advertising

Jersey City weather history for previous 24 hours

 ConditionsComfort  
Time TempWeatherWind HumidityBarometerVisibility
12:51 PM
Dec 25
52 °FPartly sunny.21 mph43%29.80 "Hg10 mi
11:51 AM53 °FPartly sunny.21 mph41%29.77 "Hg10 mi
10:51 AM51 °FScattered clouds.22 mph48%29.77 "Hg10 mi
9:51 AM49 °FBroken clouds.22 mph57%29.74 "Hg10 mi
8:51 AM49 °FBroken clouds.17 mph66%29.69 "Hg10 mi
7:51 AM49 °FBroken clouds.15 mph74%29.65 "Hg10 mi
6:51 AM50 °FLight rain. Overcast.12 mph83%29.64 "Hg10 mi
5:51 AM56 °FLight rain. Mostly cloudy.10 mph81%29.58 "Hg10 mi
4:58 AM57 °FLight rain. Overcast.13 mph82%29.55 "Hg10 mi
3:51 AM63 °FLight rain. Fog.13 mph90%29.50 "Hg6 mi
2:51 AM64 °FLight rain. Fog.14 mph94%29.52 "Hg6 mi
1:58 AM63 °FOvercast.13 mph94%29.51 "Hg10 mi
12:51 AM60 °FLow clouds.8 mph96%29.51 "Hg7 mi
11:51 PM
Dec 24
54 °FFog.No wind100%29.53 "Hg0 mi
10:51 PM53 °FDrizzle. Fog.No wind100%29.56 "Hg0 mi
9:51 PM54 °FLight rain. Fog.No wind100%29.57 "Hg0 mi
8:51 PM53 °FLight rain. Fog.5 mph100%29.57 "Hg0 mi
7:51 PM53 °FDrizzle. Fog.5 mph100%29.60 "Hg0 mi
6:51 PM52 °FLight rain. Fog.No wind100%29.61 "Hg2 mi
5:51 PM50 °FLight rain. Fog.5 mph96%29.64 "Hg1 mi
4:51 PM49 °FRain. Fog.7 mph97%29.67 "Hg1 mi
3:51 PM48 °FLight rain. Fog.7 mph96%29.70 "Hg2 mi
2:51 PM47 °FLight rain. Fog.9 mph100%29.73 "Hg2 mi
Weather by CustomWeather, © 2014

See weather overviewHow to use our weather pages